Location: *
(51.0333°S, 178.4667°E)
Time: 07:40:27
(UTC+00:00)

STARLINK-78 - Pass Details

Date: 15 November 2019
Orbit: 528 x 531 km, 53.0° (Epoch: 14 December)

Event Time Altitude Azimuth Distance (km) Brightness Sun altitude
Rises 11:15:49 0° 251° (WSW) 2,693 7.5 -20.1°
Reaches altitude 10° 11:18:03 10° 253° (WSW) 1,801 6.5 -20.1°
Maximum altitude 11:22:08 76° 337° (NNW) 559 3.4 -20.2°
Enters shadow 11:22:50 58° 44° (NE) 633 3.6 -20.2°
